[[{"header":{"parameterUnit":"m.s-1","parameterCategory":2,"la1":30.2991,"la2":30.254,"lo1":-89.0895,"lo2":-89.0444,"dy":0.0017,"dx":0.0017,"nx":28,"ny":28,"refTime":"2023-10-26T09:00:00:Z","depth":"0","parameterNumber":2,"parameterNumberName":"U-component_of_CURRENTS"},"data":[0,0,0,0,0,0,0,0,0,0,0,0,0,0,0,0,0,0,0,0,0,0,0,0,0,0,0,0,0,0,0,0,0,0,0,0,0,0,0,0,0,0,0,0,0,0,0,0,0,0,0,0,0,0,0,0,0,0,0.3215,0.3215,0,0.323,0.323,0.3229,0.3205,0.3204,0.3204,0.3204,0.3148,0.3147,0.3145,0,0,0,0,0,0,0,0,0,0,0,0,0,0.3112,0.3113,0.3215,0.3215,0.3216,0.323,0.323,0.3229,0.3205,0.3204,0.3204,0.3204,0.3148,0.3147,0.3145,0,0,0,0,0,0,0,0,0,0,0,0,0,0.3139,0.3114,0.3214,0.321,0.321,0.323,0.323,0.3229,0.3205,0.3204,0.3204,0.3204,0.3149,0.3147,0.3145,0.3142,0,0,0.3139,0.3139,0,0,0,0,0,0,0,0,0.3137,0.3142,0.321,0.3211,0.3211,0.322,0.3173,0.3199,0.3205,0.32,0.3204,0.3203,0.317,0.3166,0.3162,0.3139,0.3137,0.3139,0.3138,0.3137,0.3137,0,0,0,0,0,0,0,0.3136,0.3141,0.3214,0.3211,0.3212,0.319,0.3193,0.3177,0.3181,0.3201,0.32,0.3212,0.3169,0.3164,0.3161,0.3136,0.3139,0.3138,0.3136,0.3136,0.3115,0.3116,0,0,0,0,0,0,0.315,0.314,0.3214,0.3215,0.3179,0.3193,0.3196,0.3213,0.3183,0.318,0.3213,0.3211,0.3167,0.3163,0.3158,0.3152,0.3137,0.3136,0.3134,0.3115,0.3116,0.3116,0,0,0,0,0,0,0.3148,0.3157,0.3213,0.3182,0.3189,0.3196,0.3214,0.3213,0.3213,0.3194,0.3188,0.3215,0.3167,0.3161,0.3147,0.315,0.3135,0.3133,0.3114,0.3115,0.3116,0.3141,0,0,0,0,0,0,0.3145,0.3156,0.3166,0.3184,0.3191,0.3231,0.3215,0.3214,0.3224,0.3222,0.3194,0.3188,0.3166,0.315,0.3146,0.3147,0.3132,0.3113,0.3115,0.3116,0.3139,0.3142,0.3145,0,0,0,0,0,0.3141,0.3157,0.3166,0.3175,0.3208,0.3232,0.3233,0.3232,0.3225,0.3228,0.3208,0.3189,0.3154,0.3149,0.3144,0.3145,0.3113,0.3114,0.3115,0.3138,0.3142,0.3145,0,0,0,0,0,0,0.3108,0.3158,0.3168,0.3196,0.3217,0.323,0.3236,0.3238,0.3225,0.322,0.3193,0.3186,0.3178,0.3161,0.3157,0.3144,0.3132,0.3132,0.3151,0.3154,0.3157,0.3179,0.313,0,0,0,0,0,0.3112,0.3142,0.3178,0.32,0.3213,0.3226,0.3234,0.3239,0.3237,0.3231,0.3213,0.3194,0.318,0.3167,0.3154,0.3142,0.318,0.3142,0.3145,0.3147,0.3163,0.3211,0.3221,0.312,0.312,0.312,0,0,0.3104,0.3137,0.3152,0.3196,0.321,0.323,0.3228,0.3248,0.3256,0.3227,0.322,0.3206,0.3182,0.3171,0.3165,0.3154,0.3204,0.3149,0.3151,0.3165,0.3214,0.3224,0.3233,0.3121,0.3121,0.3121,0,0,0.3108,0.3136,0.3164,0.3187,0.3225,0.3235,0.3245,0.3264,0.3261,0.3261,0.3243,0.3234,0.3208,0.3194,0.3182,0.3195,0.3222,0.3189,0.3213,0.3259,0.3269,0.3277,0.3375,0.3392,0.3184,0.3184,0.3184,0,0.3093,0.3138,0.3171,0.3202,0.322,0.324,0.3261,0.3265,0.3273,0.3277,0.3262,0.325,0.322,0.3219,0.3217,0.3201,0.3255,0.3198,0.3265,0.3273,0.3282,0.338,0.3398,0.3185,0.3185,0.3185,0.3185,0,0.3121,0.3152,0.3169,0.3217,0.3239,0.326,0.3284,0.3294,0.3294,0.33,0.3307,0.328,0.328,0.326,0.3236,0.3273,0.3306,0.3269,0.3258,0.3294,0.3395,0.3414,0.3187,0.3187,0.3186,0.3186,0,0,0.3077,0.3172,0.3172,0.3198,0.3249,0.3265,0.329,0.3316,0.3332,0.3335,0.3361,0.3328,0.3335,0.3325,0.3303,0.3323,0.3422,0.3321,0.3323,0.3426,0.3582,0.3617,0.3641,0.3401,0.3404,0.3406,0.3645,0,0.3079,0.3148,0.3189,0.3223,0.3254,0.3285,0.3302,0.3329,0.3348,0.3377,0.3375,0.3385,0.3354,0.3356,0.3382,0.3408,0.3467,0.3365,0.3528,0.3534,0.3564,0.3661,0.3493,0.3691,0.3663,0.3666,0.3668,0,0.3073,0.3128,0.318,0.3238,0.325,0.3266,0.3309,0.3331,0.3382,0.3403,0.3441,0.3452,0.3498,0.3455,0.3571,0.3514,0.3565,0.3585,0.3594,0.3629,0.3602,0.3643,0.3726,0.3632,0.3697,0.3694,0.3692,0,0.3025,0.3101,0.3145,0.3167,0.3242,0.3255,0.3282,0.3332,0.3374,0.3431,0.3483,0.3535,0.3584,0.3643,0.3716,0.3651,0.3865,0.3775,0.3872,0.3877,0.3768,0.3759,0.3779,0.3879,0.3878,0.3878,0.3877,0,0.3004,0.3022,0.3124,0.3145,0.318,0.3229,0.3271,0.3306,0.3391,0.344,0.3498,0.3578,0.3631,0.3755,0.3791,0.3936,0.3947,0.3924,0.3945,0.3776,0.3766,0.3704,0.3638,0.3887,0.3885,0.3883,0.3882,0,0.2931,0.3003,0.3049,0.3137,0.3163,0.318,0.3283,0.3307,0.3399,0.3479,0.3509,0.366,0.3828,0.3929,0.4056,0.4052,0.4049,0.42,0.4035,0.4032,0.3975,0.3917,0.3852,0.3737,0.4328,0.4331,0.4333,0,0.2893,0.2919,0.3036,0.3064,0.3098,0.3154,0.3184,0.3292,0.3334,0.3525,0.3555,0.3779,0.3908,0.4182,0.4236,0.4378,0.4198,0.4268,0.4083,0.3999,0.3949,0.3756,0.3647,0.397,0.3969,0.3968,0.3967,0,0.2816,0.2868,0.2929,0.3004,0.3041,0.3093,0.3149,0.3208,0.3319,0.3436,0.3604,0.3744,0.4025,0.4115,0.4318,0.435,0.4041,0.4254,0.4176,0.3703,0.348,0.3369,0.3832,0.3958,0.3959,0.396,0.396,0.3961,0.2747,0.2781,0.2876,0.2921,0.297,0.2995,0.3003,0.3092,0.3201,0.3322,0.3544,0.3703,0.3888,0.4171,0.4191,0.4127,0.4072,0.3963,0.3922,0.3754,0.355,0.4046,0.4177,0.4179,0.4181,0.4182,0.4183,0,0.2649,0.2717,0.2776,0.2835,0.283,0.2893,0.2941,0.2928,0.3006,0.3198,0.3363,0.3586,0.3717,0.3842,0.3911,0.3782,0.3543,0.3678,0.3319,0.3243,0.3707,0.3597,0.3594,0.3594,0.3594,0.3594,0.3594,0.3594,0.2616,0.2643,0.2688,0.2671,0.2698,0.2647,0.2648,0.2674,0.2774,0.2923,0.3059,0.3243,0.3505,0.3648,0.3584,0.3496,0.3191,0.3069,0.3069,0.3359,0.3378,0.3397,0.3278,0.3208,0.3207,0.2424,0.2419,0.2414]},{"header":{"parameterUnit":"m.s-1","parameterCategory":2,"la1":30.2991,"la2":30.254,"lo1":-89.0895,"lo2":-89.0444,"dy":0.0017,"dx":0.0017,"nx":28,"ny":28,"refTime":"2023-10-26T09:00:00:Z","depth":"0","parameterNumber":3,"parameterNumberName":"V-component_of_CURRENTS"},"data":[0,0,0,0,0,0,0,0,0,0,0,0,0,0,0,0,0,0,0,0,0,0,0,0,0,0,0,0,0,0,0,0,0,0,0,0,0,0,0,0,0,0,0,0,0,0,0,0,0,0,0,0,0,0,0,0,0,0,-0.0065,-0.0066,0,-0.0162,-0.0163,-0.0164,-0.0221,-0.0221,-0.0221,-0.0221,-0.0345,-0.0348,-0.0352,0,0,0,0,0,0,0,0,0,0,0,0,0,0.0028,0.0027,-0.0065,-0.0066,-0.0067,-0.0161,-0.0163,-0.0165,-0.0221,-0.0221,-0.0221,-0.0221,-0.0344,-0.0348,-0.0352,0,0,0,0,0,0,0,0,0,0,0,0,0,-0.0037,0.0027,-0.0065,-0.0104,-0.0109,-0.0161,-0.0163,-0.0165,-0.0221,-0.0221,-0.0221,-0.0221,-0.0343,-0.0347,-0.0352,-0.0385,0,0,-0.0368,-0.037,0,0,0,0,0,0,0,0,-0.0033,-0.0041,-0.0098,-0.0102,-0.0106,-0.0176,-0.0175,-0.0239,-0.0221,-0.0182,-0.0221,-0.0221,-0.0289,-0.0299,-0.0321,-0.039,-0.0396,-0.0368,-0.0371,-0.0373,-0.0375,0,0,0,0,0,0,0,-0.0029,-0.0037,-0.0107,-0.0099,-0.0104,-0.0131,-0.014,-0.0188,-0.0237,-0.0185,-0.0189,-0.0194,-0.0292,-0.0316,-0.0324,-0.0398,-0.0368,-0.0372,-0.0376,-0.0378,-0.0507,-0.0508,0,0,0,0,0,0,-0.0009,-0.0033,-0.0103,-0.0109,-0.0066,-0.0132,-0.0143,-0.0157,-0.0237,-0.0248,-0.0194,-0.0197,-0.0307,-0.0318,-0.0329,-0.0367,-0.0373,-0.0378,-0.0381,-0.0507,-0.0508,-0.0508,0,0,0,0,0,0,-0.0007,-0.0015,-0.0099,-0.007,-0.0082,-0.0133,-0.0149,-0.0158,-0.0181,-0.0243,-0.0255,-0.0205,-0.0308,-0.0322,-0.0377,-0.0372,-0.038,-0.0385,-0.0507,-0.0507,-0.0508,-0.0445,0,0,0,0,0,0,-0.0004,-0.0013,-0.0015,-0.0069,-0.0083,-0.0129,-0.0149,-0.016,-0.0183,-0.0187,-0.0256,-0.0268,-0.0309,-0.0369,-0.0382,-0.0379,-0.0389,-0.0506,-0.0507,-0.0508,-0.0447,-0.0444,-0.0441,0,0,0,0,0,-0.0,-0.0004,-0.0015,-0.0023,-0.0085,-0.0128,-0.0139,-0.0177,-0.0183,-0.0196,-0.0245,-0.0266,-0.0383,-0.0374,-0.0389,-0.0387,-0.0506,-0.0507,-0.0508,-0.0448,-0.0444,-0.0441,0,0,0,0,0,0,0.0036,-0.0012,-0.0024,-0.0042,-0.0079,-0.0137,-0.0145,-0.0172,-0.0221,-0.0218,-0.0279,-0.0295,-0.0339,-0.0376,-0.0365,-0.0428,-0.0445,-0.0449,-0.0394,-0.0392,-0.0389,-0.0362,-0.0393,0,0,0,0,0,0.0046,0.0031,-0.0019,-0.0031,-0.0044,-0.0092,-0.0112,-0.0137,-0.0185,-0.0206,-0.0256,-0.0307,-0.0356,-0.0383,-0.0432,-0.0471,-0.0472,-0.0478,-0.0475,-0.0472,-0.0462,-0.0477,-0.0474,-0.0511,-0.0511,-0.0511,0,0,0.0061,0.0032,0.0025,-0.0023,-0.005,-0.0065,-0.0105,-0.0127,-0.0145,-0.0211,-0.0249,-0.03,-0.0365,-0.0408,-0.043,-0.0437,-0.0457,-0.0474,-0.047,-0.0462,-0.0478,-0.0474,-0.047,-0.0512,-0.0512,-0.0512,0,0,0.0087,0.0056,0.0058,0.0028,-0.0007,-0.004,-0.0042,-0.0097,-0.0127,-0.0173,-0.0221,-0.0271,-0.0347,-0.0393,-0.0426,-0.0439,-0.0441,-0.0449,-0.0414,-0.0429,-0.0425,-0.0422,-0.0384,-0.0378,-0.0447,-0.0447,-0.0447,0,0.0112,0.0101,0.0051,0.0045,0.0033,-0.0022,-0.0018,-0.0063,-0.013,-0.0151,-0.0174,-0.028,-0.034,-0.039,-0.0397,-0.0431,-0.0417,-0.0418,-0.0422,-0.0419,-0.0417,-0.0379,-0.0374,-0.0444,-0.0444,-0.0445,-0.0445,0,0.0139,0.013,0.013,0.0105,0.0081,0.0074,0.0017,-0.0012,-0.0049,-0.0093,-0.0151,-0.0236,-0.0293,-0.0324,-0.0369,-0.0386,-0.0371,-0.0413,-0.0422,-0.0409,-0.037,-0.0365,-0.044,-0.0441,-0.0442,-0.0442,0,0,0.0199,0.016,0.0161,0.0165,0.0116,0.0103,0.0074,0.0032,0.0031,-0.0054,-0.0063,-0.0176,-0.0212,-0.0252,-0.0312,-0.0338,-0.0313,-0.036,-0.0363,-0.0305,-0.0294,-0.0275,-0.0268,-0.0349,-0.0348,-0.0348,-0.0258,0,0.0243,0.0252,0.0215,0.0229,0.0233,0.0176,0.0158,0.011,0.0065,0.0039,-0.0061,-0.0097,-0.0188,-0.02,-0.0245,-0.0299,-0.0303,-0.0331,-0.033,-0.0329,-0.0302,-0.0264,-0.0271,-0.0192,-0.0254,-0.0253,-0.0252,0,0.0287,0.0287,0.0308,0.0298,0.0298,0.0293,0.0276,0.025,0.0187,0.0153,0.0091,0.0028,-0.0038,-0.0107,-0.0183,-0.019,-0.0229,-0.0272,-0.027,-0.0273,-0.0304,-0.0226,-0.0182,-0.0384,-0.0245,-0.0246,-0.0246,0,0.036,0.0355,0.0378,0.0372,0.0347,0.0348,0.0335,0.0286,0.0286,0.0232,0.0248,0.0143,0.0124,0.0031,-0.0067,-0.0115,-0.0115,-0.0197,-0.021,-0.0206,-0.0224,-0.0223,-0.0365,-0.0227,-0.0227,-0.0228,-0.0228,0,0.0418,0.0439,0.0415,0.0428,0.0468,0.0419,0.0456,0.0422,0.0405,0.0441,0.0318,0.035,0.0158,0.0126,0.0009,-0.0058,-0.0053,-0.0178,-0.0186,-0.0199,-0.0198,-0.0386,-0.0496,-0.0224,-0.0225,-0.0226,-0.0226,0,0.0488,0.0471,0.0501,0.0493,0.05,0.0524,0.0542,0.0566,0.0541,0.0594,0.0589,0.0523,0.0489,0.0333,0.0218,0.007,-0.0115,-0.0038,-0.0011,-0.002,-0.0268,-0.0373,-0.0471,-0.0559,-0.0054,-0.0053,-0.0053,0,0.052,0.0542,0.0562,0.0589,0.0588,0.0619,0.0646,0.0629,0.0666,0.0721,0.0764,0.0754,0.078,0.0623,0.0372,0.0204,-0.0009,0.0049,-0.0081,-0.0261,-0.0384,-0.0465,-0.0539,-0.0058,-0.0057,-0.0057,-0.0056,0,0.0586,0.0591,0.0616,0.0676,0.0711,0.0764,0.0805,0.0865,0.0876,0.0964,0.1093,0.1136,0.098,0.081,0.0534,0.0362,-0.0109,0.0055,-0.016,-0.0413,-0.0483,-0.0576,-0.0105,-0.0052,-0.0052,-0.0052,-0.0053,-0.0053,0.0634,0.0671,0.0705,0.0766,0.0816,0.0902,0.0976,0.1059,0.1189,0.1349,0.1372,0.1504,0.1163,0.0793,0.0526,-0.0024,-0.0034,-0.0231,-0.0336,-0.0395,-0.0519,-0.0006,0.004,0.004,0.004,0.004,0.004,0,0.0688,0.0733,0.0794,0.0869,0.0946,0.0958,0.1079,0.1182,0.1385,0.1574,0.1734,0.1682,0.1259,0.0773,0.0059,-0.035,-0.054,-0.0594,-0.0756,-0.0811,-0.0375,-0.0421,-0.0441,-0.0441,-0.0441,-0.0441,-0.044,-0.044,0.0715,0.0793,0.0828,0.0967,0.1029,0.1156,0.1243,0.1424,0.1588,0.1866,0.1998,0.206,0.1676,0.036,-0.0573,-0.0808,-0.1103,-0.1144,-0.129,-0.1059,-0.1035,-0.1013,-0.1086,-0.1245,-0.1246,-0.1702,-0.1707,-0.171]}],[{"header":{"parameterUnit":"m.s-1","parameterCategory":2,"la1":30.2991,"la2":30.254,"lo1":-89.0895,"lo2":-89.0444,"dy":0.0017,"dx":0.0017,"nx":28,"ny":28,"refTime":"2023-10-26T09:00:00:Z","depth":"2","parameterNumber":2,"parameterNumberName":"U-component_of_CURRENTS"},"data":[0,0,0,0,0,0,0,0,0,0,0,0,0,0,0,0,0,0,0,0,0,0,0,0,0,0,0,0,0,0,0,0,0,0,0,0,0,0,0,0,0,0,0,0,0,0,0,0,0,0,0,0,0,0,0,0,0,0,0.2568,0.2568,0,0.2582,0.2582,0.2582,0.2558,0.2557,0.2556,0.2556,0.2591,0.2593,0.2594,0,0,0,0,0,0,0,0,0,0,0,0,0,0.2519,0.252,0.2568,0.2568,0.2568,0.2582,0.2582,0.2582,0.2558,0.2557,0.2556,0.2555,0.259,0.2592,0.2594,0,0,0,0,0,0,0,0,0,0,0,0,0,0.2537,0.2521,0.2568,0.2558,0.2558,0.2582,0.2582,0.2582,0.2558,0.2557,0.2556,0.2555,0.259,0.2592,0.2595,0.2633,0,0,0.2602,0.2603,0,0,0,0,0,0,0,0,0.2536,0.2539,0.2559,0.2559,0.2558,0.2568,0.2578,0.2601,0.2558,0.2557,0.2555,0.2554,0.2587,0.2589,0.2593,0.2634,0.2636,0.2602,0.2604,0.2605,0.2606,0,0,0,0,0,0,0,0.2535,0.2538,0.2572,0.256,0.2559,0.2554,0.2555,0.2582,0.2578,0.2557,0.2555,0.2559,0.2586,0.2591,0.2594,0.2636,0.2602,0.2605,0.2606,0.2607,0.2708,0.2709,0,0,0,0,0,0,0.2536,0.2537,0.2572,0.2573,0.2545,0.2555,0.2557,0.2565,0.2577,0.2578,0.256,0.2558,0.2587,0.2591,0.2595,0.2678,0.2605,0.2607,0.2609,0.2706,0.2708,0.2709,0,0,0,0,0,0,0.2535,0.254,0.2571,0.2555,0.2559,0.2558,0.2567,0.2566,0.2591,0.2579,0.258,0.2587,0.2586,0.2591,0.2632,0.2677,0.2608,0.2611,0.2705,0.2707,0.2709,0.282,0,0,0,0,0,0,0.2534,0.2539,0.2557,0.2556,0.256,0.2593,0.2568,0.2567,0.2593,0.2591,0.2603,0.2604,0.2586,0.2629,0.2635,0.2679,0.2613,0.2704,0.2706,0.2708,0.2814,0.2825,0.2834,0,0,0,0,0,0.2532,0.255,0.2558,0.2563,0.2581,0.2595,0.2597,0.259,0.2596,0.2609,0.262,0.2604,0.2646,0.2633,0.2639,0.2686,0.2702,0.2705,0.2708,0.281,0.2823,0.2834,0,0,0,0,0,0,0.2534,0.255,0.2558,0.258,0.2594,0.2591,0.2606,0.2614,0.2635,0.2639,0.2632,0.2634,0.2688,0.2668,0.2654,0.2716,0.2668,0.2672,0.2743,0.2755,0.2765,0.2754,0.2615,0,0,0,0,0,0.2547,0.2565,0.258,0.2598,0.2611,0.2621,0.2633,0.2632,0.2645,0.2653,0.2662,0.2672,0.2702,0.2714,0.2727,0.2772,0.2768,0.2799,0.2808,0.2817,0.281,0.2849,0.2863,0.2718,0.2718,0.2718,0,0,0.2549,0.2563,0.2572,0.26,0.2612,0.2636,0.2625,0.2648,0.2681,0.2657,0.2708,0.2718,0.2723,0.2767,0.2788,0.2759,0.2862,0.282,0.2828,0.2816,0.2853,0.2868,0.288,0.272,0.2719,0.2719,0,0,0.2559,0.2583,0.2604,0.2626,0.2654,0.2659,0.2677,0.2695,0.2721,0.2777,0.2766,0.2799,0.2843,0.2843,0.2856,0.2928,0.2919,0.2935,0.2976,0.3015,0.3027,0.3038,0.3081,0.3094,0.2932,0.2932,0.2932,0,0.256,0.2589,0.2611,0.2643,0.2661,0.2678,0.2705,0.2742,0.2771,0.2802,0.2805,0.2873,0.2881,0.2932,0.2951,0.2954,0.2972,0.2938,0.303,0.304,0.305,0.309,0.3104,0.2938,0.2937,0.2937,0.2936,0,0.2588,0.2618,0.2633,0.2677,0.2705,0.2726,0.2776,0.2821,0.2862,0.2887,0.2964,0.2978,0.3013,0.3025,0.3019,0.3083,0.3076,0.3049,0.3006,0.3071,0.3109,0.3122,0.2946,0.2944,0.2942,0.2941,0,0,0.2556,0.2634,0.2639,0.2672,0.2723,0.2748,0.2824,0.2883,0.2946,0.2992,0.3067,0.3115,0.3121,0.3132,0.3128,0.3149,0.3247,0.313,0.313,0.3182,0.3348,0.3286,0.3293,0.3245,0.3247,0.3249,0.3359,0,0.2562,0.2622,0.2659,0.2715,0.275,0.2803,0.2868,0.2935,0.3007,0.3085,0.3125,0.3188,0.3167,0.3198,0.3225,0.3262,0.328,0.322,0.3266,0.3267,0.3213,0.3305,0.3061,0.3133,0.3371,0.3373,0.3374,0,0.2568,0.2611,0.2665,0.2748,0.2769,0.2808,0.2918,0.2983,0.3097,0.316,0.323,0.3267,0.3344,0.3297,0.3394,0.3365,0.3358,0.3358,0.3362,0.3266,0.3227,0.3098,0.3145,0.3394,0.3393,0.3391,0.339,0,0.2532,0.2611,0.2653,0.2681,0.2778,0.2828,0.2882,0.2997,0.3077,0.3206,0.3282,0.3365,0.3439,0.3462,0.3496,0.3464,0.3576,0.3534,0.3456,0.3453,0.323,0.3202,0.3551,0.3551,0.3551,0.355,0.355,0,0.2514,0.2546,0.2645,0.2672,0.2737,0.2817,0.2912,0.2991,0.312,0.3206,0.3311,0.3399,0.3482,0.356,0.355,0.3574,0.3635,0.3483,0.3482,0.3263,0.3239,0.3435,0.342,0.3555,0.3554,0.3553,0.3552,0,0.2454,0.2517,0.2577,0.2687,0.2721,0.2774,0.2915,0.2989,0.3123,0.3249,0.3296,0.347,0.3583,0.3636,0.3695,0.3654,0.3662,0.3618,0.3364,0.333,0.3498,0.3488,0.3585,0.3584,0.3583,0.3582,0.3582,0,0.2426,0.245,0.257,0.2612,0.2657,0.2754,0.2817,0.2965,0.3048,0.3276,0.3323,0.3493,0.3561,0.3672,0.3646,0.3642,0.3647,0.3374,0.3246,0.3515,0.3505,0.3496,0.3487,0.301,0.3005,0.3001,0.2997,0,0.2368,0.2413,0.2466,0.2548,0.262,0.2705,0.2808,0.2864,0.3039,0.3161,0.3312,0.3388,0.3517,0.3428,0.3428,0.3377,0.3372,0.3285,0.3649,0.3035,0.298,0.2968,0.2976,0.2958,0.2962,0.2965,0.2967,0.2969,0.2318,0.2337,0.2411,0.2471,0.2561,0.2619,0.2627,0.2746,0.2847,0.2941,0.3121,0.3143,0.32,0.3094,0.3012,0.2978,0.3188,0.3024,0.3034,0.305,0.2959,0.2905,0.2853,0.2856,0.2859,0.2861,0.2863,0,0.2238,0.2269,0.2328,0.24,0.2429,0.252,0.259,0.2558,0.2597,0.2718,0.2789,0.2597,0.255,0.2612,0.2518,0.2527,0.247,0.2409,0.2307,0.2351,0.2388,0.2258,0.1969,0.1966,0.1962,0.1959,0,0,0.2208,0.2203,0.2226,0.2236,0.2287,0.2271,0.2266,0.2244,0.2282,0.2244,0.2248,0.2388,0.2537,0.2195,0.2178,0.2057,0.2169,0.1979,0.2711,0.2634,0.2666,0.2776,0.2632,0,0,0,0,0]},{"header":{"parameterUnit":"m.s-1","parameterCategory":2,"la1":30.2991,"la2":30.254,"lo1":-89.0895,"lo2":-89.0444,"dy":0.0017,"dx":0.0017,"nx":28,"ny":28,"refTime":"2023-10-26T09:00:00:Z","depth":"2","parameterNumber":3,"parameterNumberName":"V-component_of_CURRENTS"},"data":[0,0,0,0,0,0,0,0,0,0,0,0,0,0,0,0,0,0,0,0,0,0,0,0,0,0,0,0,0,0,0,0,0,0,0,0,0,0,0,0,0,0,0,0,0,0,0,0,0,0,0,0,0,0,0,0,0,0,0.0092,0.0092,0,0.0053,0.0052,0.0052,0.0017,0.0016,0.0016,0.0016,-0.0105,-0.0108,-0.0111,0,0,0,0,0,0,0,0,0,0,0,0,0,0.0109,0.0109,0.0092,0.0092,0.0091,0.0053,0.0052,0.0052,0.0017,0.0016,0.0016,0.0016,-0.0104,-0.0108,-0.0112,0,0,0,0,0,0,0,0,0,0,0,0,0,0.0087,0.0109,0.0092,0.0071,0.0069,0.0053,0.0052,0.0051,0.0017,0.0016,0.0016,0.0016,-0.0103,-0.0108,-0.0112,-0.0135,0,0,-0.0126,-0.0128,0,0,0,0,0,0,0,0,0.0088,0.0086,0.0075,0.0073,0.007,0.0042,0.0014,-0.0014,0.0017,0.0034,0.0016,0.0016,-0.0062,-0.007,-0.0079,-0.0141,-0.0146,-0.0127,-0.0129,-0.0131,-0.0133,0,0,0,0,0,0,0,0.009,0.0087,0.0074,0.0074,0.0072,0.0055,0.0052,0.0009,-0.0016,0.0032,0.003,0.003,-0.0064,-0.0075,-0.0083,-0.0148,-0.0126,-0.0131,-0.0133,-0.0135,-0.0228,-0.0228,0,0,0,0,0,0,0.0102,0.0089,0.0075,0.0073,0.0082,0.0056,0.0051,0.0049,-0.0014,-0.0022,0.0031,0.0029,-0.0067,-0.0077,-0.0087,-0.0129,-0.0131,-0.0136,-0.0138,-0.0229,-0.0228,-0.0228,0,0,0,0,0,0,0.0102,0.0101,0.0077,0.0082,0.0078,0.0056,0.0053,0.0048,0.0034,-0.0013,-0.0024,0.0021,-0.0067,-0.0081,-0.0128,-0.0133,-0.0138,-0.0142,-0.0229,-0.0228,-0.0228,-0.0206,0,0,0,0,0,0,0.0103,0.0101,0.01,0.0083,0.0079,0.0072,0.0054,0.0048,0.0036,0.0033,-0.0025,-0.0036,-0.0068,-0.0121,-0.0133,-0.014,-0.0146,-0.0229,-0.0229,-0.0228,-0.0207,-0.0205,-0.0203,0,0,0,0,0,0.0104,0.011,0.01,0.0099,0.0079,0.0072,0.0068,0.0049,0.0036,0.0034,-0.001,-0.0034,-0.0125,-0.0125,-0.0139,-0.0147,-0.023,-0.0229,-0.0228,-0.0208,-0.0205,-0.0203,0,0,0,0,0,0,0.0119,0.0107,0.0096,0.0098,0.0087,0.0067,0.0067,0.005,0.0015,0.001,-0.0042,-0.0056,-0.0097,-0.0122,-0.012,-0.0169,-0.0177,-0.0179,-0.0157,-0.0155,-0.0153,-0.0124,-0.0149,0,0,0,0,0,0.0123,0.0123,0.0107,0.0109,0.0107,0.0084,0.0078,0.0066,0.0037,0.0022,-0.002,-0.0062,-0.0104,-0.0129,-0.0165,-0.02,-0.0208,-0.0209,-0.0207,-0.0205,-0.0189,-0.0206,-0.0204,-0.0226,-0.0226,-0.0226,0,0,0.0129,0.0124,0.0122,0.0113,0.0103,0.0105,0.0079,0.0077,0.0067,0.0012,-0.0019,-0.0061,-0.0111,-0.0147,-0.0166,-0.0171,-0.0204,-0.0204,-0.0203,-0.0188,-0.0205,-0.0203,-0.0201,-0.0225,-0.0225,-0.0225,0,0,0.0151,0.0139,0.0147,0.014,0.0132,0.0122,0.0122,0.0099,0.0077,0.0038,0.0002,-0.004,-0.0108,-0.0136,-0.0163,-0.017,-0.0193,-0.0181,-0.0154,-0.017,-0.0168,-0.0167,-0.0178,-0.0178,-0.018,-0.018,-0.018,0,0.016,0.0167,0.0149,0.0156,0.0159,0.0132,0.0145,0.0117,0.0078,0.0065,0.0032,-0.0049,-0.0102,-0.0133,-0.014,-0.0167,-0.0174,-0.0164,-0.0167,-0.0166,-0.0165,-0.0177,-0.0177,-0.0179,-0.0179,-0.0179,-0.0179,0,0.0186,0.019,0.0198,0.0198,0.0197,0.0206,0.0178,0.016,0.0125,0.0099,0.0053,-0.0018,-0.0064,-0.0089,-0.0128,-0.014,-0.0147,-0.0164,-0.0173,-0.0161,-0.0175,-0.0175,-0.0177,-0.0178,-0.0178,-0.0178,0,0,0.0218,0.0216,0.022,0.023,0.0223,0.023,0.0214,0.0202,0.02,0.0135,0.0125,0.0034,0.0,-0.003,-0.0079,-0.0097,-0.0116,-0.0125,-0.0127,-0.0135,-0.0145,-0.0178,-0.0181,-0.0134,-0.0134,-0.0134,-0.0159,0,0.0248,0.0273,0.0264,0.0292,0.0307,0.0283,0.0279,0.026,0.0223,0.0203,0.0129,0.0096,0.002,-0.0003,-0.0039,-0.0095,-0.0114,-0.0107,-0.0155,-0.0156,-0.0186,-0.0182,-0.0152,-0.0174,-0.0159,-0.0159,-0.0159,0,0.0282,0.0296,0.0329,0.0347,0.0353,0.0364,0.037,0.036,0.0323,0.0291,0.0241,0.0184,0.0125,0.0068,-0.0026,-0.0017,-0.0076,-0.0116,-0.0119,-0.0153,-0.019,-0.0183,-0.0175,-0.016,-0.016,-0.016,-0.016,0,0.0326,0.0345,0.0378,0.0383,0.0394,0.0405,0.0411,0.0392,0.0401,0.0355,0.0357,0.0266,0.0234,0.0138,0.0017,-0.0003,-0.0061,-0.0103,-0.0181,-0.0184,-0.0168,-0.017,-0.0146,-0.0146,-0.0146,-0.0146,-0.0145,0,0.0369,0.0396,0.0401,0.0421,0.0468,0.0455,0.0498,0.0482,0.0483,0.0526,0.0409,0.0427,0.0255,0.0187,0.0062,-0.0061,-0.0037,-0.0168,-0.0191,-0.0161,-0.0162,-0.0157,-0.0158,-0.0146,-0.0146,-0.0146,-0.0146,0,0.0418,0.0418,0.0459,0.0479,0.0493,0.0527,0.0571,0.06,0.0584,0.0638,0.0631,0.0556,0.0459,0.029,0.0153,0.0012,-0.0109,-0.0149,-0.0104,-0.0123,-0.0234,-0.0233,-0.0256,-0.0257,-0.0258,-0.0259,-0.026,0,0.0445,0.047,0.0511,0.0545,0.056,0.0605,0.0645,0.0651,0.0695,0.0736,0.0777,0.0703,0.0666,0.0422,0.0173,-0.0056,-0.0081,-0.018,-0.0228,-0.0223,-0.0244,-0.0242,-0.024,-0.0197,-0.0197,-0.0197,-0.0197,0,0.0502,0.0514,0.0551,0.0619,0.0669,0.073,0.079,0.0847,0.088,0.0939,0.1022,0.1004,0.0758,0.0518,0.0174,0.0025,-0.0159,-0.0193,-0.0181,-0.0182,-0.0172,-0.0192,-0.019,-0.0199,-0.0199,-0.0199,-0.0198,-0.0198,0.0547,0.0583,0.063,0.0699,0.0761,0.0852,0.092,0.1004,0.1114,0.1203,0.1195,0.1168,0.088,0.0431,0.0147,-0.0161,-0.0153,-0.0266,-0.0263,-0.026,-0.0257,-0.0251,-0.0291,-0.0292,-0.0292,-0.0292,-0.0293,0,0.0596,0.0639,0.0706,0.0789,0.0869,0.0893,0.1016,0.1093,0.1247,0.1316,0.137,0.1113,0.0825,0.0496,0.003,-0.0252,-0.026,-0.0328,-0.0282,-0.0278,-0.0275,-0.0272,-0.0311,-0.0312,-0.0313,-0.0313,0,0,0.0621,0.0693,0.0726,0.0865,0.0931,0.1049,0.1128,0.1254,0.133,0.1405,0.1388,0.1309,0.0918,0.0576,0.0202,-0.0061,-0.0101,-0.0102,-0.0055,0.0048,0.0054,-0.0206,-0.0193,0,0,0,0,0]}],[{"header":{"parameterUnit":"m.s-1","parameterCategory":2,"la1":30.2991,"la2":30.254,"lo1":-89.0895,"lo2":-89.0444,"dy":0.0017,"dx":0.0017,"nx":28,"ny":28,"refTime":"2023-10-26T09:00:00:Z","depth":"4","parameterNumber":2,"parameterNumberName":"U-component_of_CURRENTS"},"data":[0,0,0,0,0,0,0,0,0,0,0,0,0,0,0,0,0,0,0,0,0,0,0,0,0,0,0,0,0,0,0,0,0,0,0,0,0,0,0,0,0,0,0,0,0,0,0,0,0,0,0,0,0,0,0,0,0,0,0.1361,0.1362,0,0.1424,0.1424,0.1425,0.1472,0.1472,0.1472,0.1473,0.1543,0.1545,0.1546,0,0,0,0,0,0,0,0,0,0,0,0,0,0.1398,0.1396,0.1361,0.1362,0.1363,0.1424,0.1424,0.1425,0.1472,0.1472,0.1473,0.1473,0.1543,0.1544,0.1546,0,0,0,0,0,0,0,0,0,0,0,0,0,0.1413,0.1396,0.1361,0.1393,0.1396,0.1423,0.1424,0.1426,0.1472,0.1472,0.1473,0.1473,0.1542,0.1544,0.1547,0.1549,0,0,0.1553,0.1554,0,0,0,0,0,0,0,0,0.1412,0.1412,0.1388,0.1391,0.1395,0.144,0.1463,0.1467,0.1471,0.1443,0.1473,0.1474,0.1509,0.1514,0.1525,0.1552,0.1555,0.1554,0.1555,0.1556,0.1557,0,0,0,0,0,0,0,0.1411,0.141,0.1386,0.1388,0.1393,0.1444,0.1446,0.1465,0.1472,0.1446,0.1449,0.1456,0.1511,0.1522,0.1527,0.1556,0.1554,0.1556,0.1557,0.1558,0.1658,0.1659,0,0,0,0,0,0,0.1396,0.1408,0.1384,0.1388,0.1405,0.1442,0.1444,0.1425,0.1472,0.148,0.1455,0.1458,0.1518,0.1524,0.1529,0.1613,0.1556,0.1558,0.1559,0.1656,0.1658,0.1659,0,0,0,0,0,0,0.1396,0.1392,0.1382,0.1402,0.1404,0.144,0.1419,0.1426,0.147,0.1479,0.1487,0.1496,0.1519,0.1526,0.1565,0.1613,0.1559,0.1561,0.1655,0.1657,0.1659,0.1731,0,0,0,0,0,0,0.1396,0.1391,0.1397,0.1399,0.1402,0.1412,0.1419,0.1427,0.1471,0.1476,0.1516,0.1521,0.152,0.1562,0.1568,0.1615,0.1563,0.1653,0.1656,0.1658,0.1727,0.1735,0.1742,0,0,0,0,0,0.1397,0.1393,0.1396,0.1395,0.1399,0.1413,0.142,0.1449,0.1473,0.1492,0.1518,0.1521,0.1582,0.1565,0.1571,0.1621,0.1652,0.1655,0.1658,0.1723,0.1733,0.1742,0,0,0,0,0,0,0.1421,0.1397,0.1401,0.1393,0.141,0.1421,0.145,0.147,0.1507,0.1523,0.1534,0.1541,0.1592,0.1593,0.1574,0.1654,0.1619,0.1624,0.1667,0.1677,0.1684,0.1679,0.1565,0,0,0,0,0,0.1424,0.1415,0.1408,0.1412,0.1417,0.1442,0.1463,0.1479,0.1502,0.1522,0.1549,0.1578,0.1604,0.1629,0.1644,0.1691,0.1696,0.1727,0.1735,0.1741,0.174,0.1784,0.1795,0.1669,0.1669,0.1669,0,0,0.1439,0.1426,0.1425,0.1419,0.1436,0.1441,0.1457,0.149,0.1509,0.1522,0.1574,0.1605,0.1619,0.1667,0.1692,0.168,0.1783,0.1745,0.1751,0.1746,0.1788,0.18,0.1811,0.1671,0.167,0.167,0,0,0.1455,0.1449,0.1446,0.145,0.147,0.1476,0.1491,0.1517,0.1546,0.1585,0.1608,0.1658,0.17,0.1723,0.1738,0.1794,0.1815,0.1822,0.1869,0.1912,0.1923,0.1933,0.1968,0.198,0.1834,0.1835,0.1835,0,0.1486,0.1456,0.1457,0.1453,0.1462,0.149,0.1496,0.1523,0.1566,0.1602,0.1606,0.1702,0.1716,0.1783,0.1811,0.1812,0.1848,0.1836,0.1923,0.1933,0.1941,0.1975,0.1988,0.1838,0.1838,0.1838,0.1837,0,0.1473,0.1472,0.1476,0.1466,0.1483,0.1495,0.1513,0.1554,0.1595,0.163,0.1716,0.1745,0.1805,0.1831,0.184,0.193,0.194,0.1923,0.1901,0.1959,0.1991,0.2002,0.1844,0.1843,0.1841,0.184,0,0,0.1488,0.1469,0.1477,0.1474,0.1487,0.1495,0.1535,0.1578,0.1627,0.1687,0.1753,0.1821,0.1875,0.1894,0.1935,0.1985,0.2079,0.2001,0.2002,0.2039,0.2197,0.2074,0.2074,0.2102,0.2104,0.2106,0.22,0,0.1487,0.1471,0.1469,0.148,0.1471,0.1504,0.1544,0.1598,0.1651,0.1722,0.1789,0.1869,0.1889,0.195,0.2001,0.2057,0.2113,0.2055,0.2133,0.2135,0.202,0.2083,0.2112,0.2209,0.2212,0.2213,0.2215,0,0.1468,0.1459,0.1457,0.1476,0.1483,0.1511,0.158,0.1616,0.1718,0.1773,0.1866,0.1923,0.2026,0.202,0.2147,0.2126,0.2173,0.2205,0.2209,0.2071,0.2032,0.2136,0.2236,0.2234,0.2232,0.2231,0.223,0,0.145,0.1454,0.1451,0.1451,0.1479,0.1522,0.1564,0.1656,0.1706,0.1828,0.1889,0.2,0.207,0.2147,0.2227,0.2211,0.2348,0.2314,0.2244,0.2236,0.2287,0.2276,0.2396,0.2396,0.2396,0.2396,0.2395,0,0.1416,0.1423,0.1454,0.1447,0.1486,0.1526,0.1597,0.166,0.1765,0.1832,0.1935,0.2003,0.2114,0.22,0.2256,0.2289,0.2372,0.226,0.2254,0.2316,0.2307,0.2296,0.2283,0.2399,0.2399,0.2398,0.2397,0,0.1378,0.1394,0.1388,0.1436,0.147,0.15,0.1604,0.165,0.1774,0.1857,0.191,0.2037,0.2151,0.2245,0.236,0.2309,0.2361,0.2357,0.2436,0.2431,0.2212,0.2202,0.2263,0.2259,0.2256,0.2254,0.2252,0,0.135,0.1345,0.1375,0.139,0.1419,0.1483,0.1534,0.1649,0.1685,0.1865,0.1885,0.2048,0.2125,0.2183,0.2287,0.2369,0.2354,0.2345,0.2254,0.2211,0.22,0.2195,0.2189,0.2247,0.2246,0.2245,0.2245,0,0.1301,0.1319,0.1307,0.1331,0.1377,0.1399,0.1476,0.1502,0.163,0.1761,0.1838,0.1918,0.2029,0.2106,0.2192,0.2246,0.232,0.2313,0.2318,0.2232,0.2193,0.2183,0.2181,0.2234,0.2236,0.2237,0.2237,0,0.1277,0.1246,0.1243,0.125,0.1292,0.1292,0.1347,0.1399,0.146,0.1653,0.1681,0.1866,0.2001,0.2047,0.2132,0.2169,0.2131,0.2043,0.2062,0.2074,0.197,0.189,0.1842,0,0,0,0,0,0.1245,0.1187,0.1175,0.114,0.1172,0.1205,0.1287,0.1343,0.1479,0.1493,0.1583,0.1692,0.1814,0.1902,0.1908,0.2055,0.2138,0.2049,0.2044,0.2176,0.2188,0.2084,0,0,0,0,0,0,0.121,0.1187,0.1129,0.1052,0.1031,0.1048,0.1106,0.1205,0.1206,0.1372,0.1447,0.1581,0.1724,0.1805,0.1874,0.1905,0.1864,0.2167,0.2163,0.2169,0.218,0.219,0.2087,0,0,0,0,0]},{"header":{"parameterUnit":"m.s-1","parameterCategory":2,"la1":30.2991,"la2":30.254,"lo1":-89.0895,"lo2":-89.0444,"dy":0.0017,"dx":0.0017,"nx":28,"ny":28,"refTime":"2023-10-26T09:00:00:Z","depth":"4","parameterNumber":3,"parameterNumberName":"V-component_of_CURRENTS"},"data":[0,0,0,0,0,0,0,0,0,0,0,0,0,0,0,0,0,0,0,0,0,0,0,0,0,0,0,0,0,0,0,0,0,0,0,0,0,0,0,0,0,0,0,0,0,0,0,0,0,0,0,0,0,0,0,0,0,0,0.0192,0.0192,0,0.0181,0.018,0.018,0.0155,0.0155,0.0155,0.0154,0.0096,0.0094,0.0093,0,0,0,0,0,0,0,0,0,0,0,0,0,0.0164,0.0165,0.0192,0.0192,0.0192,0.0181,0.018,0.018,0.0155,0.0155,0.0154,0.0154,0.0096,0.0095,0.0093,0,0,0,0,0,0,0,0,0,0,0,0,0,0.0164,0.0165,0.0192,0.0181,0.018,0.0181,0.018,0.018,0.0155,0.0155,0.0154,0.0154,0.0097,0.0095,0.0093,0.0086,0,0,0.0086,0.0085,0,0,0,0,0,0,0,0,0.0164,0.0164,0.0182,0.0182,0.0181,0.0172,0.0149,0.0147,0.0155,0.0161,0.0154,0.0154,0.0119,0.0115,0.011,0.0083,0.008,0.0086,0.0085,0.0084,0.0083,0,0,0,0,0,0,0,0.0164,0.0164,0.0184,0.0183,0.0182,0.0168,0.0167,0.0149,0.0138,0.016,0.0159,0.0164,0.0118,0.0112,0.0108,0.0079,0.0086,0.0084,0.0083,0.0082,0.0063,0.0064,0,0,0,0,0,0,0.0174,0.0165,0.0184,0.0184,0.0175,0.0169,0.0168,0.0172,0.0139,0.0135,0.0164,0.0163,0.0115,0.011,0.0106,0.0116,0.0084,0.0082,0.0081,0.0063,0.0064,0.0064,0,0,0,0,0,0,0.0174,0.0176,0.0185,0.0177,0.0177,0.017,0.0175,0.0172,0.0169,0.0144,0.0138,0.0165,0.0115,0.0109,0.0103,0.0113,0.0081,0.0079,0.0062,0.0063,0.0064,0.0124,0,0,0,0,0,0,0.0173,0.0176,0.0182,0.0178,0.0178,0.0191,0.0175,0.0172,0.0174,0.0172,0.0142,0.0136,0.0114,0.0106,0.0101,0.0109,0.0078,0.0061,0.0062,0.0064,0.0121,0.0127,0.0132,0,0,0,0,0,0.0172,0.0184,0.0183,0.0185,0.0187,0.0192,0.0191,0.0182,0.0175,0.0177,0.0163,0.0137,0.0111,0.0105,0.0098,0.0107,0.006,0.0062,0.0064,0.0118,0.0126,0.0132,0,0,0,0,0,0,0.0175,0.0183,0.0181,0.0195,0.0197,0.0189,0.0195,0.0187,0.0177,0.0176,0.0147,0.0141,0.014,0.0117,0.0111,0.0106,0.0081,0.0081,0.0125,0.0131,0.0137,0.0145,0.0076,0,0,0,0,0,0.0181,0.0191,0.0194,0.0205,0.021,0.0202,0.0204,0.0198,0.0191,0.0186,0.0171,0.0153,0.0142,0.0131,0.0118,0.0113,0.0076,0.0114,0.012,0.0125,0.0128,0.0089,0.0091,0.007,0.007,0.007,0,0,0.0185,0.0192,0.0197,0.0207,0.0207,0.022,0.0201,0.0209,0.022,0.0181,0.0193,0.0174,0.0146,0.0147,0.0143,0.0127,0.011,0.0127,0.0131,0.0132,0.0091,0.0093,0.0095,0.0071,0.0071,0.0071,0,0,0.02,0.0206,0.0219,0.0225,0.0234,0.0235,0.024,0.024,0.0242,0.0251,0.0228,0.022,0.0202,0.0186,0.0174,0.0201,0.0145,0.0193,0.0221,0.0184,0.0185,0.0186,0.0135,0.013,0.0191,0.0191,0.0191,0,0.0204,0.0223,0.0223,0.0239,0.0252,0.0245,0.0264,0.0267,0.0266,0.0272,0.0265,0.0245,0.0224,0.0215,0.0227,0.0213,0.0174,0.0199,0.0191,0.0191,0.019,0.0137,0.0132,0.0194,0.0193,0.0193,0.0193,0,0.0227,0.0244,0.0255,0.0275,0.0288,0.0303,0.0314,0.0327,0.0333,0.033,0.0333,0.0307,0.029,0.0285,0.0264,0.0252,0.0219,0.0206,0.0173,0.0196,0.0139,0.0132,0.0198,0.0197,0.0196,0.0195,0,0,0.0237,0.0265,0.027,0.029,0.031,0.0326,0.0355,0.0375,0.0394,0.0389,0.0398,0.0385,0.0361,0.0346,0.0314,0.0285,0.025,0.0246,0.0243,0.0194,0.015,0.0125,0.0114,0.0229,0.0229,0.0228,0.0108,0,0.0256,0.0294,0.0304,0.0347,0.0371,0.0382,0.041,0.0427,0.0437,0.0444,0.0415,0.0412,0.0386,0.0375,0.0342,0.0275,0.0235,0.0283,0.0136,0.0132,0.0106,0.0107,0.0226,0.0103,0.0101,0.01,0.0099,0,0.028,0.0306,0.0348,0.0393,0.0405,0.043,0.0478,0.0498,0.0503,0.0508,0.0492,0.0462,0.0421,0.0397,0.0288,0.0315,0.0239,0.0185,0.0178,0.013,0.0094,0.0076,0.0085,0.0086,0.0087,0.0088,0.0089,0,0.0298,0.0341,0.0379,0.0393,0.0438,0.0466,0.0492,0.0518,0.0548,0.0541,0.0549,0.0492,0.0461,0.037,0.0261,0.0268,0.0129,0.0122,0.0024,0.002,0.0051,0.0052,0.0041,0.0041,0.0041,0.0041,0.0042,0,0.032,0.0354,0.0392,0.0416,0.0473,0.0491,0.0547,0.0568,0.059,0.0618,0.0574,0.0568,0.0454,0.0363,0.026,0.0115,0.0121,0.0025,-0.001,0.0078,0.0083,0.0045,0.0047,0.0037,0.0038,0.0039,0.0039,0,0.0337,0.0357,0.0408,0.046,0.0484,0.0525,0.0595,0.0635,0.0645,0.0676,0.0674,0.0615,0.0495,0.0366,0.0204,0.0115,-0.0018,-0.0073,0.0018,-0.001,-0.0105,-0.0098,-0.0193,-0.0194,-0.0196,-0.0197,-0.0198,0,0.035,0.0376,0.0442,0.0481,0.051,0.0573,0.0624,0.0664,0.0703,0.0705,0.0714,0.0615,0.0554,0.0307,0.0164,-0.0052,-0.0076,-0.0155,-0.0113,-0.0103,-0.0127,-0.0118,-0.011,-0.0201,-0.0201,-0.0202,-0.0202,0,0.0378,0.0398,0.044,0.0513,0.0575,0.0648,0.0714,0.0743,0.0779,0.0787,0.0749,0.063,0.0483,0.0303,0.0126,-0.0022,-0.0105,-0.0172,-0.0169,-0.013,-0.0114,-0.0135,-0.0124,-0.0207,-0.0207,-0.0206,-0.0206,0,0.04,0.0429,0.0479,0.0546,0.0624,0.0697,0.0732,0.077,0.0805,0.0801,0.0779,0.0635,0.0552,0.0315,0.0157,0.0002,-0.003,-0.0071,-0.0074,-0.007,0.0006,0.0047,-0.0031,0,0,0,0,0,0.042,0.0451,0.0511,0.058,0.0655,0.0702,0.0784,0.081,0.0831,0.0815,0.0804,0.0672,0.0438,0.0335,0.0177,0.0117,-0.0067,-0.0076,-0.0118,-0.0237,-0.0231,-0.0164,0,0,0,0,0,0,0.0431,0.0485,0.0508,0.0597,0.0644,0.0733,0.0787,0.0807,0.0796,0.0792,0.0673,0.0621,0.0394,0.0526,0.0168,0.012,0.007,-0.0183,-0.0186,-0.0241,-0.0235,-0.023,-0.0159,0,0,0,0,0]}]]